Location: USNO
(38.9242°N, 77.0663°W)
Time: 15:01:12
(UTC-04:00)

Daily predictions for brighter satellites

Satellite Brightness Start Highest point End
(mag) Time Altitude Azimuth Time Altitude Azimuth Time Altitude Azimuth
SL-19 R/B 4.4 19:12:05 10° SSE 19:17:34 62° ENE 19:23:23 10° N
Cosmos 2219 Rocket 3.6 19:14:49 10° SW 19:20:08 43° WNW 19:25:32 10° N
Helios 1A 4.3 19:17:37 10° ESE 19:20:44 21° ENE 19:23:52 10° NNE
CZ-2C R/B 3.9 19:17:44 10° S 19:22:28 43° W 19:27:06 10° NNW
NOSS 3-2 (A) 3.6 19:19:48 10° SSW 19:25:39 57° ESE 19:31:59 10° NE
DMSP B5D1-3 4.5 19:20:44 10° NNE 19:25:52 78° ESE 19:30:58 10° S
Meteor 1-22 Rocket 4.2 19:20:47 10° S 19:26:01 55° E 19:31:11 10° NNE
Cosmos 2278 Rocket 2.5 19:21:03 10° NNW 19:26:43 76° WSW 19:32:21 10° SSE
COSMO-SKYMED 1 2.8 19:22:34 10° N 19:26:55 76° WNW 19:31:14 10° SSW
Cosmos 1441 Rocket 3.4 19:23:26 10° NNW 19:27:11 76° W 19:30:54 10° S
Cosmos 1378 3.6 19:26:02 10° N 19:29:33 38° E 19:33:02 10° SSE
ALOS 3.7 19:27:30 10° ESE 19:30:40 18° ENE 19:33:51 10° NNE
OAO 3 Rocket 3.7 19:26:25 10° WSW 19:30:57 46° SSE 19:35:32 10° E
USA 238 DEB 4.4 19:24:19 10° SW 19:31:17 61° NW 19:38:15 10° NNE
USA 238 4.4 19:24:24 10° SW 19:31:23 62° NW 19:38:22 10° NNE
ATLAS CENTAUR R/B 3.4 19:27:07 10° SSW 19:31:27 62° ESE 19:44:37 10° NE
Cosmos 2297 3.8 19:25:57 10° NNW 19:31:34 58° ENE 19:37:06 10° SE
Meteor 1-28 Rocket 3.3 19:28:48 10° NNE 19:32:27 52° E 19:36:05 10° S
CZ-4C R/B 3.2 19:29:14 10° SW 19:34:21 48° NW 19:40:07 10° NNE
Meteor 2-5 Rocket 4.2 19:31:14 10° NNW 19:36:49 65° W 19:42:16 10° S
Meteor 1-24 Rocket 3.6 19:31:43 10° N 19:37:23 72° E 19:42:48 10° SSE
Cosmos 1707 3.4 19:35:51 10° NNW 19:39:39 59° W 19:43:26 10° S
Cosmos 2034 Rocket 4.3 19:37:58 10° SSE 19:43:47 43° E 19:49:41 10° NNE
Cosmos 2369 Rocket 4.1 19:42:44 10° NNE 19:44:55 12° NE 19:47:06 10° ENE
SAR-Lupe-4 3.7 19:41:24 10° S 19:44:57 77° WSW 19:48:33 10° NNW
Cosmos 1464 Rocket 4.0 19:40:07 10° S 19:46:15 62° E 19:52:21 10° NNE
SJ-6B 2.8 19:42:21 10° SSE 19:46:18 86° E 19:50:22 10° N
Cosmos 1766 Rocket 4.0 19:43:18 10° N 19:47:25 38° ENE 19:51:28 10° SSE
Cosmos 1603 4.4 19:42:48 10° SSE 19:47:47 32° ESE 19:52:47 10° NE
FREGAT/IRIS 2.6 19:45:11 10° SSE 19:48:15 70° ENE 19:51:20 10° N
Timation 1 Rocket 4.4 19:42:40 10° NNW 19:48:35 59° ENE 19:54:26 10° SE
Cosmos 1437 3.6 19:48:09 10° NNW 19:51:21 55° W 19:54:33 10° S
Cosmos 1758 3.7 19:51:49 10° SSE 19:55:39 42° E 19:59:32 10° NNE
Cosmos 2333 Rocket 4.3 19:54:35 10° WSW 19:59:31 29° WNW 20:04:30 10° N
Spot 2 Rocket 3.4 19:56:23 10° SSE 20:01:23 70° ENE 20:06:24 10° N
NOSS 3-2 (C) 3.4 19:57:12 10° SSW 20:03:14 84° ESE 20:09:48 10° NE
CENTAUR R/B 3.5 19:59:10 10° SSE 20:03:29 21° ESE 20:05:42 17° E
FengYun 1-2 T 4.3 19:58:10 10° SSE 20:03:32 56° ENE 20:08:54 10° N
Cosmos 1076 Rocket 3.4 20:00:03 10° N 20:04:23 76° E 20:08:43 10° SSE
GPS 2-04 Rocket1 4.2 20:03:30 10° SSW 20:05:56 18° SSE 20:06:26 17° SE
ASTEX 1 4.0 20:01:41 10° NNE 20:06:07 33° E 20:10:30 10° SSE
Helios 1B rocket 2.3 20:02:33 10° NNE 20:06:41 77° ESE 20:10:47 10° S
Cosmos 2056 Rocket 4.2 20:01:31 10° NNW 20:06:52 60° WSW 20:12:11 10° S
Cosmos-2242 3.1 20:03:45 10° S 20:07:58 53° E 20:12:15 10° NNE
SL-8 R/B 4.3 20:05:22 10° SSW 20:09:42 35° SE 20:11:41 25° E
In-Cosmos 22 4.2 20:09:21 10° N 20:15:09 79° E 20:20:54 10° SSE
Cosmos 1674 3.8 20:14:07 10° NNE 20:16:58 26° ENE 20:16:58 26° ENE
Cosmos 1842 Rocket 4.2 20:18:06 30° ESE 20:18:40 32° E 20:22:31 10° NNE
Meteor 1-21 Rocket 4.1 20:14:56 10° N 20:20:27 64° E 20:25:55 10° SSE
Atlas Centaur 2 4.1 20:13:10 10° W 20:20:41 35° SSW 20:26:11 16° SE
Cosmos 1500 Rocket 4.3 20:17:39 10° NNE 20:21:39 32° ENE 20:21:56 32° E
Cosmos 1408 Rocket 3.6 20:17:51 10° N 20:22:13 77° W 20:26:31 10° S
ASTRO E2 4.0 20:19:02 10° WSW 20:22:29 28° S 20:23:33 24° SSE
Cosmos 1346 3.9 20:26:06 10° N 20:28:07 36° NNE 20:28:07 36° NNE
ATLAS CENTAUR R/B 3.7 20:26:27 10° WNW 20:29:34 21° WSW 20:32:31 10° SSW
Abrixas 4.0 20:28:34 10° SSW 20:30:14 26° SSW 20:30:14 26° SSW
Resurs 01 Rocket 2.3 20:27:18 10° S 20:31:40 55° W 20:36:03 10° NNW
ATLAS 5 CENTAUR R/B 2.2 20:28:28 10° SW 20:33:11 65° NW 20:38:19 10° NNE
Resurs 1-3 3.9 20:28:53 10° S 20:33:14 69° WSW 20:37:38 10° NNW
USA 215 3.7 20:32:57 10° NE 20:39:22 61° NW 20:45:46 10° WSW
CZ-2D R/B 3.1 20:43:00 56° SSE 20:43:48 86° ENE 20:47:43 10° N
SL-16 R/B 4.0 20:39:33 10° WSW 20:44:37 32° WNW 20:49:43 10° N
Cosmos 1743 Rocket 3.5 20:45:21 10° N 20:49:48 83° W 20:51:26 39° S
Gbstr 26 Del rocket 4.3 20:46:05 10° SSW 20:48:32 29° S 20:48:32 29° S
Cosmos 1953 3.8 20:46:45 10° SSW 20:50:29 38° WNW 20:54:13 10° N
ISS -0.6 20:49:16 10° SSW 20:49:30 12° SSW 20:49:30 12° SSW
ERS-1 Rocket 3.8 20:54:53 33° NE 20:54:53 33° NE 20:58:27 10° N
Nadezhda 4 Rocket 4.1 20:51:29 10° N 20:57:46 76° W 21:03:56 10° S
SeaSat 1 2.3 20:54:47 10° NNE 20:59:46 86° ESE 21:04:42 10° SSW
BREEZE-M DEB (TANK) 3.9 20:49:47 10° WNW 21:01:03 47° N 21:02:28 37° NE
H-2A R/B 3.3 21:01:10 51° SW 21:01:42 56° W 21:05:33 10° NNW
GP-B 3.7 20:58:09 10° N 21:01:21 46° NNE 21:01:21 46° NNE
Cosmos 1092 Rocket 3.8 20:57:31 10° N 21:03:47 88° E 21:06:37 35° S
Cosmos 2142 Rocket 4.4 21:02:43 28° S 21:06:16 71° E 21:12:39 10° NNE
ALOS 3.3 21:04:18 16° SSW 21:07:46 43° W 21:12:13 10° NNW
Cosmos 839 Rocket 4.4 21:00:28 10° NNW 21:07:58 52° NE 21:08:43 50° ENE
FENGYUN 3A 4.5 21:06:43 13° S 21:11:21 48° W 21:16:34 10° NNW
SEDSat Delta rocket 4.5 21:05:17 10° WSW 21:11:40 44° S 21:12:12 43° S
OAO 3 Rocket 3.9 21:09:32 10° W 21:13:21 46° SW 21:13:21 46° SW
Cosmos 1634 Rocket 3.9 21:10:39 11° S 21:16:46 90° NNE 21:23:01 10° N
Cosmos 2026 Rocket 4.0 21:13:21 10° N 21:18:46 61° NE 21:18:46 61° NE
Cosmos 2369 Rocket 2.4 21:24:13 10° NNW 21:28:54 61° N 21:28:54 61° N
Cosmos 1943 Rocket 3.6 21:32:21 10° N 21:35:15 27° NNE 21:35:15 27° NNE
Envisat 4.4 21:53:17 34° NNW 21:53:17 34° NNW 21:56:09 10° NNW
CENTAUR R/B 2.8 21:47:22 10° SW 21:59:44 12° NNE 22:00:07 10° NNE
